[[{"header":{"parameterUnit":"m.s-1","parameterCategory":1,"la1":30.2991,"la2":30.254,"lo1":-89.0895,"lo2":-89.0444,"dy":0.0017,"dx":0.0017,"nx":28,"ny":28,"refTime":"2023-10-22T03:00:00:Z","depth":0,"parameterNumber":2,"parameterNumberName":"U-component_of_WINDS"},"data":[0,0,0,0,0,0,0,0,0,0,0,0,0,0,0,0,0,0,0,0,0,0,0,0,0,0,0,0,0,0,0,0,0,0,0,0,0,0,0,0,0,0,0,0,0,0,0,0,0,0,0,0,0,0,0,0,0,0,-1.0266,-1.0265,0,-1.0241,-1.0241,-1.0241,-1.0206,-1.0205,-1.0205,-1.0204,-1.0179,-1.0179,-1.0178,0,0,0,0,0,0,0,0,0,0,0,0,0,-1.0282,-1.0282,-1.0266,-1.0265,-1.0265,-1.0241,-1.0241,-1.0241,-1.0206,-1.0205,-1.0205,-1.0204,-1.0179,-1.0179,-1.0178,0,0,0,0,0,0,0,0,0,0,0,0,0,-1.0268,-1.0282,-1.0266,-1.0245,-1.0243,-1.0241,-1.0241,-1.024,-1.0206,-1.0205,-1.0204,-1.0203,-1.0179,-1.0179,-1.0178,-1.0195,0,0,-1.0178,-1.0178,0,0,0,0,0,0,0,0,-1.0269,-1.0267,-1.0248,-1.0246,-1.0244,-1.0226,-1.0237,-1.0225,-1.0206,-1.022,-1.0204,-1.0203,-1.0195,-1.0193,-1.0191,-1.0194,-1.0193,-1.0178,-1.0178,-1.0178,-1.0178,0,0,0,0,0,0,0,-1.027,-1.0268,-1.0256,-1.0248,-1.0245,-1.0237,-1.0234,-1.0235,-1.0213,-1.0219,-1.0216,-1.0214,-1.0194,-1.0191,-1.019,-1.0193,-1.0178,-1.0178,-1.0178,-1.0178,-1.0208,-1.0209,0,0,0,0,0,0,-1.0274,-1.0269,-1.0257,-1.0255,-1.0254,-1.0237,-1.0234,-1.0232,-1.0213,-1.0209,-1.0215,-1.0212,-1.0192,-1.019,-1.0189,-1.0207,-1.0178,-1.0178,-1.0177,-1.0207,-1.0208,-1.0209,0,0,0,0,0,0,-1.0274,-1.0273,-1.0258,-1.0262,-1.0259,-1.0238,-1.0237,-1.0232,-1.023,-1.021,-1.0205,-1.0216,-1.0191,-1.0189,-1.0194,-1.0206,-1.0177,-1.0177,-1.0206,-1.0208,-1.0209,-1.0244,0,0,0,0,0,0,-1.0275,-1.0274,-1.028,-1.0262,-1.0259,-1.0263,-1.0237,-1.0233,-1.023,-1.0226,-1.021,-1.0206,-1.019,-1.0194,-1.0194,-1.0205,-1.0177,-1.0205,-1.0207,-1.0209,-1.0242,-1.0246,-1.025,0,0,0,0,0,-1.0276,-1.029,-1.028,-1.0279,-1.0266,-1.0264,-1.0262,-1.0244,-1.0231,-1.0237,-1.0224,-1.0207,-1.0205,-1.0195,-1.0194,-1.0206,-1.0204,-1.0206,-1.0208,-1.024,-1.0245,-1.025,0,0,0,0,0,0,-1.031,-1.0288,-1.0276,-1.0286,-1.0277,-1.0258,-1.0265,-1.025,-1.0245,-1.0242,-1.0219,-1.0216,-1.0224,-1.0215,-1.0205,-1.0221,-1.0202,-1.0204,-1.0226,-1.0231,-1.0236,-1.0237,-1.0177,0,0,0,0,0,-1.0319,-1.0319,-1.0299,-1.031,-1.0306,-1.0287,-1.0285,-1.0271,-1.0261,-1.0258,-1.0245,-1.0236,-1.0233,-1.0232,-1.0228,-1.024,-1.0236,-1.0248,-1.0252,-1.0256,-1.0258,-1.0263,-1.0268,-1.0216,-1.0216,-1.0216,0,0,-1.0337,-1.0324,-1.0326,-1.0316,-1.0308,-1.0309,-1.0284,-1.0285,-1.0285,-1.0258,-1.0261,-1.0252,-1.024,-1.0249,-1.0252,-1.0242,-1.0271,-1.0258,-1.0261,-1.0261,-1.0266,-1.0271,-1.0275,-1.0218,-1.0217,-1.0217,0,0,-1.0369,-1.036,-1.0368,-1.036,-1.0348,-1.0335,-1.0337,-1.032,-1.0313,-1.0316,-1.0296,-1.0295,-1.0291,-1.0284,-1.028,-1.031,-1.0294,-1.0309,-1.0332,-1.0338,-1.0342,-1.0345,-1.0356,-1.036,-1.0311,-1.0312,-1.0312,0,-1.0393,-1.0393,-1.0373,-1.0376,-1.0373,-1.0348,-1.0355,-1.0349,-1.0336,-1.0334,-1.0323,-1.0317,-1.0308,-1.0314,-1.0322,-1.0319,-1.032,-1.0311,-1.0343,-1.0346,-1.0349,-1.0359,-1.0363,-1.0313,-1.0313,-1.0313,-1.0313,0,-1.0423,-1.0423,-1.0431,-1.0419,-1.0416,-1.0422,-1.0403,-1.0402,-1.0389,-1.0377,-1.0381,-1.0369,-1.0362,-1.0363,-1.035,-1.0367,-1.0361,-1.0347,-1.0328,-1.0356,-1.0365,-1.0369,-1.0316,-1.0316,-1.0315,-1.0314,0,0,-1.0476,-1.0454,-1.0457,-1.0451,-1.0436,-1.0436,-1.044,-1.0434,-1.0434,-1.0426,-1.0429,-1.0426,-1.0413,-1.0408,-1.0394,-1.0399,-1.0424,-1.0384,-1.0384,-1.0392,-1.0442,-1.0453,-1.0457,-1.0414,-1.0414,-1.0415,-1.0443,0,-1.0505,-1.0511,-1.0493,-1.0504,-1.0504,-1.048,-1.0484,-1.0475,-1.0464,-1.0463,-1.0451,-1.0449,-1.0432,-1.0429,-1.0433,-1.042,-1.0434,-1.0418,-1.0415,-1.0416,-1.0419,-1.0462,-1.0473,-1.05,-1.0446,-1.0447,-1.0447,0,-1.054,-1.0534,-1.0545,-1.0529,-1.0529,-1.0532,-1.0525,-1.0524,-1.0514,-1.0505,-1.05,-1.0484,-1.0487,-1.0469,-1.0472,-1.0462,-1.046,-1.0454,-1.0454,-1.0453,-1.0433,-1.0461,-1.0508,-1.0512,-1.0453,-1.0452,-1.0452,0,-1.0577,-1.0572,-1.0578,-1.0574,-1.0556,-1.0559,-1.0552,-1.054,-1.0538,-1.0532,-1.053,-1.0524,-1.0521,-1.0517,-1.05,-1.0488,-1.0505,-1.0485,-1.0498,-1.0498,-1.0502,-1.0502,-1.0549,-1.0502,-1.0502,-1.0502,-1.0502,0,-1.0612,-1.0619,-1.0594,-1.0598,-1.0605,-1.0585,-1.0593,-1.0583,-1.0573,-1.0574,-1.0554,-1.0555,-1.0533,-1.0531,-1.0518,-1.0523,-1.0521,-1.0515,-1.0511,-1.0516,-1.0517,-1.0514,-1.0512,-1.0503,-1.0503,-1.0502,-1.0502,0,-1.0654,-1.0638,-1.0642,-1.0625,-1.0621,-1.0627,-1.0613,-1.0615,-1.0603,-1.0605,-1.0604,-1.0585,-1.0583,-1.0565,-1.0559,-1.055,-1.0559,-1.0552,-1.0563,-1.056,-1.0574,-1.0573,-1.062,-1.0625,-1.0575,-1.0576,-1.0576,0,-1.0677,-1.0682,-1.0666,-1.0665,-1.0659,-1.0658,-1.0655,-1.0636,-1.0634,-1.0623,-1.0626,-1.0622,-1.0618,-1.0615,-1.0601,-1.0596,-1.0588,-1.0605,-1.0587,-1.0592,-1.0587,-1.0587,-1.0587,-1.0609,-1.0609,-1.061,-1.061,0,-1.0719,-1.0711,-1.0708,-1.0702,-1.07,-1.0694,-1.0688,-1.0688,-1.0667,-1.0666,-1.0663,-1.066,-1.0653,-1.0649,-1.0642,-1.0634,-1.0619,-1.0616,-1.0619,-1.0624,-1.063,-1.0626,-1.0573,-1.0615,-1.0614,-1.0614,-1.0614,-1.0614,-1.0752,-1.0755,-1.0744,-1.0742,-1.0735,-1.0729,-1.073,-1.0719,-1.0716,-1.071,-1.0699,-1.0698,-1.0687,-1.0675,-1.0669,-1.0668,-1.0659,-1.0662,-1.0663,-1.0664,-1.0667,-1.063,-1.0666,-1.0666,-1.0666,-1.0666,-1.0666,0,-1.0793,-1.0784,-1.0782,-1.0774,-1.0772,-1.0758,-1.075,-1.0749,-1.0748,-1.074,-1.0736,-1.0733,-1.0729,-1.0715,-1.071,-1.0712,-1.0704,-1.0711,-1.071,-1.0708,-1.0676,-1.0674,-1.0717,-1.0717,-1.0717,-1.0717,-1.0717,-1.0717,-1.0813,-1.0818,-1.0809,-1.081,-1.0802,-1.0801,-1.0797,-1.0792,-1.0785,-1.0783,-1.078,-1.077,-1.076,-1.0753,-1.0749,-1.0745,-1.0744,-1.0753,-1.0746,-1.0716,-1.0711,-1.0706,-1.0704,-1.0753,-1.0753,-1.0779,-1.0779,-1.0779]},{"header":{"parameterUnit":"m.s-1","parameterCategory":1,"la1":30.2991,"la2":30.254,"lo1":-89.0895,"lo2":-89.0444,"dy":0.0017,"dx":0.0017,"nx":28,"ny":28,"refTime":"2023-10-22T03:00:00:Z","depth":0,"parameterNumber":3,"parameterNumberName":"V-component_of_WINDS"},"data":[0,0,0,0,0,0,0,0,0,0,0,0,0,0,0,0,0,0,0,0,0,0,0,0,0,0,0,0,0,0,0,0,0,0,0,0,0,0,0,0,0,0,0,0,0,0,0,0,0,0,0,0,0,0,0,0,0,0,-0.7685,-0.7685,0,-0.7727,-0.7727,-0.7728,-0.7749,-0.7749,-0.7749,-0.7749,-0.7792,-0.7793,-0.7794,0,0,0,0,0,0,0,0,0,0,0,0,0,-0.7621,-0.7622,-0.7685,-0.7685,-0.7686,-0.7727,-0.7728,-0.7728,-0.7749,-0.7749,-0.7749,-0.7749,-0.7791,-0.7793,-0.7794,0,0,0,0,0,0,0,0,0,0,0,0,0,-0.7655,-0.7623,-0.7685,-0.7701,-0.7703,-0.7727,-0.7728,-0.7728,-0.7749,-0.7749,-0.7749,-0.7749,-0.7791,-0.7793,-0.7794,-0.7804,0,0,-0.7799,-0.78,0,0,0,0,0,0,0,0,-0.7653,-0.7657,-0.7698,-0.77,-0.7702,-0.7733,-0.7721,-0.7754,-0.7749,-0.7732,-0.7749,-0.7749,-0.7772,-0.7775,-0.7783,-0.7806,-0.7808,-0.7799,-0.78,-0.7801,-0.7802,0,0,0,0,0,0,0,-0.765,-0.7655,-0.7701,-0.7699,-0.7701,-0.7706,-0.7711,-0.7727,-0.7751,-0.7733,-0.7735,-0.774,-0.7773,-0.7782,-0.7784,-0.7808,-0.7799,-0.7801,-0.7802,-0.7803,-0.7841,-0.7841,0,0,0,0,0,0,-0.7646,-0.7653,-0.77,-0.7703,-0.7677,-0.7708,-0.7713,-0.7723,-0.7751,-0.7755,-0.774,-0.7741,-0.7779,-0.7782,-0.7786,-0.7799,-0.7801,-0.7803,-0.7804,-0.7841,-0.7841,-0.7841,0,0,0,0,0,0,-0.7644,-0.765,-0.7698,-0.7678,-0.7685,-0.7709,-0.772,-0.7724,-0.7732,-0.7756,-0.776,-0.7744,-0.7779,-0.7784,-0.7799,-0.7801,-0.7803,-0.7805,-0.7841,-0.7841,-0.7841,-0.7826,0,0,0,0,0,0,-0.7642,-0.7649,-0.7653,-0.7678,-0.7686,-0.7711,-0.772,-0.7725,-0.7735,-0.7737,-0.7761,-0.7765,-0.7779,-0.7797,-0.7801,-0.7803,-0.7806,-0.7841,-0.7841,-0.7841,-0.7826,-0.7825,-0.7825,0,0,0,0,0,-0.764,-0.7647,-0.7653,-0.7659,-0.7692,-0.7711,-0.7716,-0.7732,-0.7735,-0.774,-0.7755,-0.7764,-0.78,-0.7798,-0.7803,-0.7806,-0.7841,-0.7841,-0.7841,-0.7827,-0.7826,-0.7825,0,0,0,0,0,0,-0.7621,-0.765,-0.7658,-0.7673,-0.769,-0.7715,-0.7721,-0.7731,-0.7746,-0.7747,-0.7766,-0.7772,-0.7786,-0.7798,-0.7795,-0.7817,-0.7822,-0.7823,-0.7809,-0.7808,-0.7807,-0.7804,-0.7808,0,0,0,0,0,-0.7618,-0.7632,-0.7657,-0.7668,-0.7676,-0.7697,-0.7706,-0.7718,-0.7735,-0.7742,-0.7759,-0.7775,-0.779,-0.78,-0.7815,-0.7828,-0.7834,-0.7833,-0.7832,-0.7831,-0.7831,-0.7839,-0.7839,-0.7842,-0.7842,-0.7842,0,0,-0.7614,-0.7632,-0.7639,-0.7665,-0.7679,-0.7693,-0.7703,-0.7717,-0.7727,-0.7744,-0.776,-0.7773,-0.7793,-0.7807,-0.7815,-0.7818,-0.7832,-0.7831,-0.783,-0.7831,-0.7839,-0.7839,-0.7839,-0.7842,-0.7842,-0.7842,0,0,-0.7612,-0.7627,-0.7638,-0.7652,-0.7673,-0.7687,-0.7689,-0.7713,-0.7722,-0.7739,-0.7752,-0.7764,-0.779,-0.7804,-0.7814,-0.7817,-0.7826,-0.7821,-0.7817,-0.7824,-0.7824,-0.7824,-0.7825,-0.7825,-0.7822,-0.7822,-0.7822,0,-0.7603,-0.7624,-0.7642,-0.7655,-0.7666,-0.7683,-0.7694,-0.7707,-0.7732,-0.7739,-0.7742,-0.7774,-0.7788,-0.7807,-0.7807,-0.7815,-0.7818,-0.7819,-0.7822,-0.7823,-0.7823,-0.7824,-0.7824,-0.7821,-0.7821,-0.7821,-0.7821,0,-0.7612,-0.7627,-0.7633,-0.7657,-0.7669,-0.7681,-0.77,-0.771,-0.772,-0.7734,-0.775,-0.7768,-0.7787,-0.7792,-0.7802,-0.7812,-0.7813,-0.7819,-0.7824,-0.7822,-0.7823,-0.7824,-0.782,-0.782,-0.782,-0.7821,0,0,-0.76,-0.7634,-0.7636,-0.7647,-0.7672,-0.7683,-0.7696,-0.7715,-0.7722,-0.7739,-0.775,-0.7771,-0.7777,-0.7789,-0.78,-0.7807,-0.7808,-0.7812,-0.7813,-0.7811,-0.782,-0.7815,-0.7815,-0.7814,-0.7815,-0.7815,-0.7818,0,-0.7602,-0.7626,-0.7642,-0.7659,-0.7673,-0.7689,-0.77,-0.7716,-0.7729,-0.7742,-0.7756,-0.7771,-0.7777,-0.7784,-0.7791,-0.7806,-0.781,-0.7806,-0.7825,-0.7825,-0.7819,-0.7816,-0.7811,-0.7813,-0.7819,-0.7819,-0.7819,0,-0.7607,-0.7623,-0.7642,-0.7665,-0.7672,-0.7681,-0.77,-0.7712,-0.7731,-0.774,-0.7753,-0.7765,-0.7778,-0.7782,-0.7801,-0.7798,-0.7807,-0.7815,-0.7816,-0.7818,-0.7822,-0.7818,-0.7815,-0.7815,-0.782,-0.782,-0.782,0,-0.7596,-0.7623,-0.7637,-0.7646,-0.7674,-0.768,-0.7692,-0.7711,-0.7721,-0.7737,-0.7744,-0.7761,-0.7771,-0.7784,-0.78,-0.7801,-0.7818,-0.7823,-0.7825,-0.7825,-0.7828,-0.7828,-0.7825,-0.7833,-0.7833,-0.7833,-0.7833,0,-0.7596,-0.7607,-0.7633,-0.7642,-0.7654,-0.7673,-0.7685,-0.7698,-0.7714,-0.7726,-0.774,-0.7751,-0.7772,-0.7785,-0.7798,-0.7812,-0.7816,-0.7823,-0.7826,-0.7822,-0.7821,-0.7828,-0.7828,-0.7833,-0.7833,-0.7833,-0.7833,0,-0.7586,-0.7604,-0.7621,-0.7645,-0.7652,-0.766,-0.7681,-0.769,-0.7704,-0.7718,-0.7723,-0.7744,-0.776,-0.7778,-0.7799,-0.7808,-0.7821,-0.7826,-0.7815,-0.7817,-0.7818,-0.7818,-0.7821,-0.7822,-0.7829,-0.7829,-0.7828,0,-0.7585,-0.7593,-0.7619,-0.7628,-0.764,-0.7654,-0.7665,-0.7683,-0.7693,-0.7715,-0.7722,-0.7739,-0.7754,-0.7779,-0.7796,-0.7813,-0.7818,-0.7818,-0.7821,-0.7816,-0.7818,-0.7817,-0.7818,-0.7817,-0.7817,-0.7817,-0.7816,0,-0.7581,-0.7589,-0.7604,-0.7622,-0.7635,-0.765,-0.7666,-0.7672,-0.7693,-0.7704,-0.7721,-0.7733,-0.7755,-0.7772,-0.7791,-0.7803,-0.7813,-0.7815,-0.7817,-0.7812,-0.7806,-0.7809,-0.7813,-0.7815,-0.7815,-0.7815,-0.7815,-0.7816,-0.7575,-0.7584,-0.7603,-0.7619,-0.7633,-0.7647,-0.7657,-0.7672,-0.7687,-0.7707,-0.7717,-0.7733,-0.7752,-0.7778,-0.779,-0.7803,-0.7806,-0.7808,-0.7809,-0.7809,-0.7808,-0.7804,-0.7806,-0.7806,-0.7806,-0.7807,-0.7807,0,-0.7572,-0.7585,-0.76,-0.7622,-0.7635,-0.7643,-0.7661,-0.7671,-0.7686,-0.7702,-0.7716,-0.7736,-0.7752,-0.7771,-0.7788,-0.7795,-0.78,-0.7799,-0.7799,-0.7801,-0.7804,-0.7801,-0.7795,-0.7795,-0.7795,-0.7795,-0.7795,-0.7795,-0.7572,-0.7587,-0.7598,-0.762,-0.7633,-0.765,-0.7659,-0.7672,-0.7685,-0.7706,-0.772,-0.7732,-0.7749,-0.7768,-0.7784,-0.7789,-0.7795,-0.7792,-0.7798,-0.78,-0.7801,-0.7802,-0.7799,-0.7793,-0.7793,-0.7795,-0.7795,-0.7795]}]]